Погода в Мачулах

Россия / Смоленская область     54°20′20″N   32°32′53″E
темп.,
°C
ветер,
м/с
пор.,
м/с
влажн.,
%
обл.,
%
осадки,
мм/ч
давл.,
гПа
погр.,
м
5 августа, чт
чт500:00+14юв238674 0.0 101723
03:00+14юв3485100 0.0 101560
06:00+13ююв1195100 1.4 101628
09:00+15ююв41091100 1.8 1014629
12:00+15юв5109399 0.5 1014476
15:00+19юв367569 0.9 1012654
18:00+21зюз126866 1.3 1011588
21:00+18вюв117993 1.4 101111
6 августа, пт
пт600:00+16в228895 0.0 101027
03:00+15вюв229160 0.0 101023
06:00+15вюв3591100 0.0 1009107
09:00+16юв3799100 6.8 1008302
12:00+17вюв6119498 3.1 1007408
15:00+20в5787100 5.8 1006365
18:00+20св2390100 4.6 100557
21:00+18в1193100 7.3 100419
7 августа, сб
сб700:00+18ююв3691100 0.1 1005168
03:00+17юв4897100 0.6 1005240
06:00+17ююв51197100 1.1 1005537
09:00+18ю4795100 1.2 1006519
12:00+18ююз478696 0.1 1007670
15:00+22юз695460 0.1 10071726
18:00+19юз586897 0.0 10091211
21:00+17юз487298 0.0 1010530
8 августа, вс
вс800:00+16юз410766 0.0 1011592
03:00+13ююз389440 0.0 1013191
06:00+13ююз369727 0.0 1014148
09:00+18зюз467977 0.0 1015575
12:00+22зюз456585 0.0 10151236
15:00+24зюз345620 0.1 10151511
18:00+24з23602 0.0 10161360
21:00+18ююв1168100 0.0 101711
9 августа, пн
пн900:00+16юв33769 0.0 101827
03:00+15ююв34785 0.0 101865
06:00+15ююв347613 0.0 101867
09:00+21ю466373 0.0 1018292
12:00+26ю345014 0.0 1018869
15:00+28ююз24451 0.0 10171527
18:00+27юв24555 0.0 1017223
21:00+19ююв458385 1.3 101765